Погода Гусь-Хрустальный

Погода Гусь-Хрустальный : погода сейчас, прогноз погоды и архив. Всё, что Вы хотите узнать о погоде Гусь-Хрустальный!

Хотите узнать прогноз погоды Гусь-Хрустальный? Тогда Вам сюда: Погода Гусь-Хрустальный

Поиск расширенной информации на нашем сайте:

Другие новости

Новости СМИ2

Главная страница сайта

Новости сайта

03.07.2017

Напоминаем, что на нашем специализированном сайте Метеоцентр.Азия вы можете получить высокодетализированные автоматические прогнозы погоды по пунктам России, СНГ и мира в авиационном формате (включающие направление и скорость ветра, видимость, явления погоды, количество и форму облачности, нижнюю и верхнюю границу облачности).


Погода Гусь-Хрустальный - сегодня

Время (UTC), дата Ветер
(°,м/с) 
Видим.   Явления Облачность Т
(°С)
Тd
(°С)
f(%) Тe
(°С)
Pmin
(гПа)
dP
(гПа)
Po
(мм)
O2
(г/м3)
Тmin Tmax R s Состояние
почвы
18 17.04.18 тихо ()   20000 м    8/6 300 м верхняя 
[Cu Sc|Cs]
+12.4 +4.5 59 +12  1015  0.1  749  288           
21 17.04.18 120 (ЮВ) 20000 м    8/6 300 м верхняя 
[Sc|Cs]
+9.9 +4.6 70 +11  1014.6  -0.5  749  290           
00 18.04.18 160 (Ю) 10 км    8/6 300 м верхняя 
[Sc|Cs]
+10.4 +4.8 68 +12  1013.5  -1  748  290           
09 18.04.18 140 (ЮВ) 10 км  {ливн. осадки}  9/9 300 м кучево-дожд. 
[Cb cap]
+11.8 +10.2 90 +14  1009  -1.8  745  286           
18 18.04.18 060 (СВ) 2000 м  слаб. ливневой дождь  10/10 300 м кучево-дожд. 
[Cb cap]
+8.5 +7.8 95 +10  1006.9  -0.4  743  289           
21 18.04.18 360 (С) 2000 м  слаб. ливневой дождь  10/10 300 м кучево-дожд. 
[Cb cap]
+8.1 +7.4 95 +9  1004.9  -1.9  741  289           
09 19.04.18 020 (С) 4000 м  слаб. дождь  10/9 300 м средняя 
[Sc|As op]
+5.6 +4 89 +5  1001.9  0.8  739  291           
18 19.04.18 340 (С) 20000 м  в посл. час дождь  10/6 300 м средняя 
[Sc|As op]
+7.1 +5.6 90 +8  1006.1  1.4  742  291           
21 19.04.18 330 (СЗ) 20000 м    10/6 300 м средняя 
[Sc|As op]
+6 +4.7 91 +7  1006.8  0.6  743  292           
00 20.04.18 350 (С) 20000 м    3/0 верхняя 
[Cs]
+5 -1 65 +5  1007.9  1.1  743  294           
06 20.04.18 020 (С) 20000 м    ясно 
+8.9 -1.5 48 +8  1011.7  1.8  746  291           
09 20.04.18 350 (С) 3{11}  20000 м    3/3 600 м 
[Cu hum]
+12.6 -1.2 38 +12  1011.9  0.5  747  288           
18 20.04.18 300 (СЗ) 20000 м    8/0 верхняя 
[Cs]
+7.8 -1.5 52 +9  1012.4  0.1  747  293           
21 20.04.18 тихо ()   20000 м    10/0 средняя 
[As trans]
+5.4 +0.6 71 +5  1011.5  -1  746  295           
00 21.04.18 160 (Ю) н/о    н/о 
+4.1 +0.9 80 +5  1009.7  -1.9  745  295           
06 21.04.18 190 (Ю) 0200 м    10/9 300 м средняя 
[Sc|As op]
+8 +1.6 64 +7  1001.5  -4.2  739  289           
09 21.04.18 180 (Ю) 10 км  слаб. ливневой дождь  9/9 300 м кучево-дожд. 
[Cb cap]
+9.9 +6.1 77 +9  996.9  -4.4  736  285           
21 22.04.18 300 (СЗ) 20000 м    9/9 300 м 
[Sc]
+0.5 -4.6 69 1005.4  0.8  741  299           
00 23.04.18 300 (СЗ) 20000 м    9/5 300 м средняя 
[Sc|Ac und]
+0.4 -6 62 -1  1006.2  0.7  742  299           
18 23.04.18 310 (СЗ) 20000 м    3/0 верхняя 
[Cs]
+2.9 -9.3 40 +2  1012  1.7  746  298           
21 23.04.18 280 (З) 20000 м    ясно 
-0.7 -8.1 57 1012.6  0.4  747  302           
00 24.04.18 290 (З) 20000 м    ясно 
-2.2 -7.2 69 -2  1013  0.3  747  304           
06 24.04.18 300 (СЗ) 20000 м    ясно 
+4.3 -8.6 38 +3  1014.1  0.5  748  298           
09 24.04.18 310 (СЗ) 20000 м    ясно 
+7.7 -9.3 29 +8  1013.4  -0.5  748  294           
12 24.04.18 360 (С) 20000 м    3/0 верхняя 
[Cs]
+9.3 -9.4 26 +9  1012.2  -1.1  747  292           
Время (UTC), дата Ветер
(°,м/с) 
Видим.   Явления Облачность Т
(°С)
Тd
(°С)
f(%) Тe
(°С)
Pmin
(гПа)
dP
(гПа)
Po
(мм)
O2
(г/м3)
Тmin Tmax R s Состояние
почвы

Для получения пояснительной информации подведите курсор к названию столбца.

ПОГОДА Гусь-Хрустальный - архив

Всё, что Вы хотите узнать о погоде Гусь-Хрустальный - удобно и подробно!

Выберите нужную дату (начиная с 1 января 2015* года) и нажмите кнопку "Найти".
Будут отображены архивные сводки погоды по пункту Гусь-Хрустальный, начиная с указанной даты.


Отображать данные в формате CSV (для использования в таблицах Excel)


Внимание! Наш архив погоды предназначен исключительно для личного некоммерческого использования в познавательных целях. Если Вам необходимы официальные справки о состоянии погоды (для производственных, юридических, коммерческих и т.п. целей), обращайтесь в органы Росгидромета.

*Примечание: данная дата относится к архиву по метеостанциям СССР (Россия, СНГ, Балтия).
Архив по метеостанциям Зарубежной Европы и Азии (кроме Китая) хранится 10 дней, по другим регионам земного шара (Китай, Африка, Америка, Австралия, Океания) - 1 день.

Гусь-Хрустальный - район местоположения метеостанции


Название, широта, долгота, высота метеостанции:
Гусь-Хрустальный 55.6°ш. 40.6°д. 136 м над ур. моря [Российская Федерация]

Дополнительная информация

В oтличие oт бoльшинства пoгoдных сайтoв мы публикуем пoдрoбную метеoинфoрмацию в детальнoм прoфессиoнальнoм фoрмате.

Характеристики температуры и влажнoсти вoздуха измеряются на высoте 2 м в тени вдали oт зданий и деревьев.
Скoрoсть ветра измеряется на высoте 10 м (на урoвне рoста челoвека скoрoсть ветра ниже в 1.5-2 раза). Если метеoстанция нахoдится в гoрoде или в лесу, тo скoрoсть ветра занижена на 2-4 м/с пo сравнению с oткрытым местoм. Скoрoсть ветра над акватoриями крупных рек и oзёр, а также на вершинах хoлмoв на 2-5 м/с выше, чем в oбычных услoвиях.
Атмoсфернoе давление в разных тoчках местнoсти мoжет значительнo oтличаться oт давления на метеoстанции, в зависимoсти oт услoвий рельефа (при пoдъёме на 10 м давление пoнижается примернo на 1 мм рт.ст.).